Location: Unspecified
(0.0000°N, 0.0000°E)
Time: 17:18:56
(UTC+00:00)

deb Delta 104 - Visible Passes

Search period start: 16 December 2025 00:00
Search period end: 26 December 2025 00:00
Orbit: 803 x 873 km, 101.6° (Epoch: 15 December)

Date Brightness Start Highest point End Pass type
(mag) Time Alt. Az. Time Alt. Az. Time Alt. Az.
16 Dec ? 03:02:41 12° ENE 03:05:48 19° ESE 03:09:28 10° SSE visible
16 Dec ? 04:44:23 25° NW 04:45:38 27° WNW 04:50:03 10° SW visible
17 Dec ? 02:48:35 10° E 02:50:27 12° ESE 02:52:19 10° SE visible
17 Dec ? 04:28:25 32° NNW 04:30:14 43° WNW 04:35:14 10° SW visible
18 Dec ? 04:12:25 32° N 04:14:49 69° WNW 04:20:05 10° SSW visible
19 Dec ? 03:56:22 26° NNE 03:59:22 76° ESE 04:04:41 10° S visible
20 Dec ? 03:40:18 18° NE 03:43:54 47° ESE 03:49:00 10° S visible
20 Dec ? 05:22:41 10° WNW 05:23:45 11° WNW 05:24:49 10° W visible
21 Dec ? 03:24:10 11° NE 03:28:26 30° ESE 03:33:02 10° SSE visible
21 Dec ? 05:05:53 13° NW 05:08:16 18° WNW 05:11:43 10° WSW visible
22 Dec ? 03:09:16 10° ENE 03:12:56 19° ESE 03:16:37 10° SSE visible
22 Dec ? 04:49:42 16° NNW 04:52:45 28° WNW 04:57:14 10° SW visible
23 Dec ? 02:55:34 10° E 02:57:25 12° ESE 02:59:17 10° SE visible
23 Dec ? 04:33:27 17° N 04:37:12 44° WNW 04:42:15 10° SW visible
24 Dec ? 04:17:09 14° N 04:21:37 70° WNW 04:26:56 10° SSW visible
25 Dec ? 04:00:47 10° NNE 04:06:01 74° ESE 04:11:22 10° S visible
